Regional Weather Roundup
Issued by NWS Green Bay, WI

Home | Current Version | Previous Version | Text Only | Print | Product List | Glossary On
Versions: 1 2 3 4 5 6 7 8 9 10 11 12 13 14 15 16 17 18 19 20 21 22 23 24 25 26 27 28 29 30 31 32 33 34 35 36 37 38 39 40 41 42 43 44 45 46 47 48 49 50
000
ASUS43 KGRB 261011
RWRGRB

NORTH-CENTRAL AND NORTHEAST WISCONSIN REGIONAL WEATHER ROUNDUP
NATIONAL WEATHER SERVICE GREEN BAY WI
500 AM CDT MON SEP 26 2016

WIZ005-009-010>012-018-019-261100-
NORTH CENTRAL WISCONSIN

CITY           SKY/WX    TMP DP  RH WIND       PRES   REMARKS
IRONWOOD       LGT RAIN  49  48  97 SW17G25   29.68F FOG
MANITOWISH WTR DRIZZLE   47  47 100 W10G21    29.72F
ARBOR VITAE    DRIZZLE   49  47  93 W12       29.73F
EAGLE RIVER    CLOUDY    48  46  93 SW12      29.72F
LAND O LAKES   CLOUDY    50  45  83 SW10G17   29.72F
RHINELANDER    CLOUDY    49  46  90 W13G23    29.76F
PHILLIPS       RAIN      47  46  97 W8        29.77S
ANTIGO         CLOUDY    48  43  84 W12G17    29.79F
TOMAHAWK       CLOUDY    49  43  78 W7        29.78F
MERRILL        CLOUDY    51  44  78 W13G18    29.80F
$$

WIZ013-073-261100-
NORTHEAST WISCONSIN

CITY           SKY/WX    TMP DP  RH WIND       PRES   REMARKS
IRON MOUNTAIN  CLOUDY    52  46  80 W8G21     29.71F
MARINETTE      CLOUDY    54  48  80 W7G16     29.77S
OCONTO         CLOUDY    54  44  71 W13G25    29.79F
$$

WIZ017-030-035>037-045-261100-
CENTRAL WISCONSIN

CITY           SKY/WX    TMP DP  RH WIND       PRES   REMARKS
MEDFORD        CLOUDY    50  46  87 W15G26    29.81S
WAUSAU         MOCLDY    50  43  77 W13       29.80F
MOSINEE        MOCLDY    48  45  87 W14       29.84S
MARSHFIELD     CLOUDY    52  43  71 W14G23    29.84F
WISC RAPIDS    MOCLDY    52  46  80 W8        29.88F
STEVENS POINT  MOCLDY    49  43  78 SW12      29.85F
WAUPACA        PTCLDY    55  45  71 W10G20    29.85F
SHAWANO        CLOUDY    54  45  70 SW8       29.82F
CLINTONVILLE   NOT AVBL
WAUTOMA        PTCLDY    53  46  77 W10       29.88F
$$

WIZ038-039-048-051-261100-
FOX VALLEY

CITY           SKY/WX    TMP DP  RH WIND       PRES   REMARKS
NWS GREEN BAY  CLOUDY    54  46  74 W12G25    29.83F
APPLETON       CLOUDY    52  41  66 W16       29.84S
OSHKOSH        CLOUDY    55  45  68 W8        29.87S
FOND DU LAC    CLOUDY    55  47  74 SW8       29.90R
$$

WIZ022-050-052-261100-
EAST CENTRAL WISCONSIN

CITY           SKY/WX    TMP DP  RH WIND       PRES   REMARKS
EPHRAIM        PTSUNNY   56  50  82 W12G21    29.76S
WASHINGTON ISL CLOUDY    57  50  75 W14G25    29.74S
STURGEON BAY   MOCLDY    55  45  68 W18G28    29.80R
MANITOWOC      CLOUDY    57  44  62 MISG      29.86R
SHEBOYGAN      CLOUDY    57  45  64 W12       29.88R
$$

LMZ563-521-522-541>543-261100-
LAKESHORE

STATION/POSITION TIME  TEMP    WIND        PRES    VSBY  WAVE
                       AIR SEA DIR/SP/G                  HT/PER
                 (UTC) (F)     (DEG/KT/KT) (MB)    (MI)  (FT/S)
SHEBOYGAN LKSHOR 1000   59     260/ 10/ 14 1011.3R
KEWAUNEE LKSHORE 0900   58     260/ 11/ 18 1009.0F
NORTHPORT PIER   0900   60     270/  4/ 13 1007.5F
N MID LAKE BUOY  0950   62 67  240/ 21/ 27 1005.9F         4/ 4
CHAMBERS ISLAND  0900   59     220/ 10/ 17 1007.5F
MENOMINEE LKSHOR 0900   58     240/ 10/ 15 1007.4F
$$




USA.gov is the U.S. government's official web portal to all federal, state and local government web resources and services.